Weather History for Troy, AL

Change the Weather History Date:

Saturday, December 14, 2013

  Actual Average Record
Temperature  
Mean Temperature 57 °F 48 °F  
Max Temperature 70 °F 60 °F 74 °F (2011)
Min Temperature 43 °F 37 °F 18 °F (2010)
Degree Days  
Heating Degree Days 8 17  
Month to date heating degree days 126 216  
Since 1 July heating degree days 479 609  
Growing Degree Days 8 (Base 50)    
Moisture  
Dew Point 57 °F    
Average Humidity 85    
Maximum Humidity 93    
Minimum Humidity 76    
Precipitation  
Precipitation 0.16 in 0.16 in 1.10 in (2000)
Month to date precipitation 1.37 2.45  
Year to date precipitation 52.10 52.23  
Snow  
Snow 0.00 in - - ()
Month to date snowfall 0.0  
Since 1 July snowfall 0.0  
Snow Depth 0.00 in    
Sea Level Pressure  
Sea Level Pressure 29.91 in    
Wind  
Wind Speed 7 mph (SSW)    
Max Wind Speed 22 mph    
Max Gust Speed 28 mph    
Visibility 9 miles    
Events Rain    
T = Trace of Precipitation, MM = Missing Value Source: NWS Daily Summary

Daily Weather History Graph

Daily Weather History Graph

Search for Another Location

Airport:

Trip Planner

Search our weather history database for the weather conditions in past years. The results will help you decide how hot, cold, wet, or windy it might be!

Date:

Astronomy

Dec. 14, 2013 Rise Set
Actual Time 6:36 AM CST 4:41 PM CST
Civil Twilight 6:09 AM CST 5:08 PM CST
Nautical Twilight 5:38 AM CST 5:38 PM CST
Astronomical Twilight 5:09 AM CST 6:08 PM CST
Moon 2:57 PM CST (12/14) 4:02 AM CST (12/14)
Length of Visible Light 10h 59m
Length of Day
10h 05m
Waxing Gibbous, 94% of the Moon is Illuminated
Dec 14
Waxing Gibbous
Dec 17
Full
Dec 25
Last Quarter
Jan 1
New
Jan 7
First Quarter

Hourly Weather History & Observations

Time (CST) Temp. Windchill Dew Point Humidity Pressure Visibility Wind Dir Wind Speed Gust Speed Precip Events Conditions
12:53 AM 46.0 °F 43.9 °F 39.0 °F 76% 30.08 in 10.0 mi NE 4.6 mph - N/A   Scattered Clouds
1:53 AM 48.0 °F - 41.0 °F 77% 30.06 in 10.0 mi NE 5.8 mph - N/A   Overcast
2:53 AM 51.1 °F - 44.1 °F 77% 30.02 in 10.0 mi East 4.6 mph - N/A   Overcast
3:53 AM 54.0 °F - 46.9 °F 77% 29.99 in 10.0 mi SE 9.2 mph - N/A   Overcast
4:53 AM 55.0 °F - 48.9 °F 80% 29.98 in 10.0 mi SE 8.1 mph - N/A   Overcast
5:43 AM 57.0 °F - 51.1 °F 81% 29.96 in 10.0 mi SSE 8.1 mph - N/A   Overcast
5:53 AM 57.0 °F - 51.1 °F 81% 29.96 in 10.0 mi SE 9.2 mph - N/A   Overcast
6:44 AM 57.0 °F - 52.0 °F 83% 29.95 in 10.0 mi SSE 12.7 mph 25.3 mph N/A   Overcast
6:53 AM 57.9 °F - 52.0 °F 81% 29.95 in 10.0 mi SSE 13.8 mph 20.7 mph N/A   Overcast
7:18 AM 57.9 °F - 53.1 °F 84% 29.96 in 10.0 mi SSE 9.2 mph - N/A   Overcast
7:32 AM 57.9 °F - 54.0 °F 87% 29.95 in 9.0 mi SSE 9.2 mph 21.9 mph 0.00 in Rain Light Rain
7:53 AM 57.9 °F - 54.0 °F 87% 29.94 in 10.0 mi SSE 8.1 mph 16.1 mph 0.00 in   Overcast
8:13 AM 59.0 °F - 55.0 °F 87% 29.94 in 10.0 mi South 10.4 mph 21.9 mph N/A   Overcast
8:53 AM 61.0 °F - 55.9 °F 83% 29.94 in 10.0 mi South 8.1 mph - N/A   Overcast
9:51 AM 62.6 °F - 57.2 °F 82% 29.93 in 9.0 mi South 8.1 mph - N/A   Overcast
9:53 AM 63.0 °F - 57.9 °F 84% 29.92 in 8.0 mi South 8.1 mph - 0.00 in Rain Light Rain
10:13 AM 63.0 °F - 59.0 °F 87% 29.92 in 7.0 mi South 6.9 mph - 0.01 in Rain Light Rain
10:49 AM 62.6 °F - 60.8 °F 94% 29.89 in 4.0 mi SSE 5.8 mph - 0.01 in Rain Light Rain
10:53 AM 63.0 °F - 60.1 °F 90% 29.88 in 5.0 mi South 4.6 mph - 0.01 in Rain Light Rain
11:11 AM 63.0 °F - 61.0 °F 93% 29.89 in 2.5 mi SW 8.1 mph - 0.03 in Rain Rain
11:19 AM 64.0 °F - 60.1 °F 87% 29.88 in 5.0 mi WSW 11.5 mph 18.4 mph 0.05 in Rain Light Rain
11:32 AM 64.9 °F - 62.1 °F 90% 29.87 in 6.0 mi SSW 10.4 mph 21.9 mph 0.05 in Rain Light Rain
11:45 AM 64.9 °F - 62.1 °F 90% 29.86 in 10.0 mi SW 10.4 mph - 0.05 in   Overcast
11:53 AM 64.9 °F - 62.1 °F 90% 29.86 in 6.0 mi SW 10.4 mph - 0.06 in Rain Light Rain
12:04 PM 64.9 °F - 62.1 °F 90% 29.87 in 8.0 mi SW 8.1 mph - 0.00 in Rain Light Rain
12:20 PM 64.9 °F - 63.0 °F 93% 29.86 in 6.0 mi SW 5.8 mph - 0.00 in Rain Light Rain
12:32 PM 64.9 °F - 63.0 °F 93% 29.85 in 7.0 mi SSW 6.9 mph - 0.00 in Rain Light Rain
12:53 PM 66.9 °F - 64.0 °F 90% 29.83 in 9.0 mi SSW 5.8 mph - 0.00 in   Overcast
1:07 PM 66.9 °F - 63.0 °F 87% 29.83 in 10.0 mi SW 4.6 mph - N/A   Overcast
1:30 PM 68.0 °F - 64.0 °F 87% 29.83 in 10.0 mi West 4.6 mph - N/A   Overcast
1:41 PM 69.1 °F - 64.9 °F 87% 29.83 in 10.0 mi Variable 5.8 mph - N/A   Overcast
1:53 PM 69.1 °F - 64.0 °F 84% 29.82 in 10.0 mi SSW 5.8 mph - N/A   Overcast
2:28 PM 69.1 °F - 64.0 °F 84% 29.84 in 10.0 mi West 6.9 mph - N/A   Mostly Cloudy
2:38 PM 70.0 °F - 64.0 °F 81% 29.84 in 10.0 mi WSW 5.8 mph - N/A   Mostly Cloudy
2:53 PM 70.0 °F - 63.0 °F 78% 29.84 in 10.0 mi West 8.1 mph - N/A   Mostly Cloudy
3:48 PM 68.0 °F - 62.6 °F 83% 29.86 in 10.0 mi NW 5.8 mph - N/A   Mostly Cloudy
3:53 PM 68.0 °F - 62.1 °F 81% 29.86 in 10.0 mi NW 5.8 mph - N/A   Mostly Cloudy
4:32 PM 66.0 °F - 61.0 °F 84% 29.87 in 10.0 mi NNW 6.9 mph - N/A   Partly Cloudy
4:53 PM 64.9 °F - 61.0 °F 87% 29.87 in 10.0 mi NW 6.9 mph - N/A   Clear
5:53 PM 63.0 °F - 60.1 °F 90% 29.88 in 10.0 mi NW 5.8 mph - 0.00 in   Overcast
6:53 PM 61.0 °F - 57.9 °F 90% 29.87 in 10.0 mi NNE 4.6 mph - 0.01 in   Overcast
7:53 PM 61.0 °F - 57.9 °F 90% 29.89 in 10.0 mi NNW 9.2 mph - 0.00 in   Overcast
8:05 PM 61.0 °F - 57.9 °F 90% 29.91 in 10.0 mi NW 9.2 mph - N/A   Overcast
8:42 PM 60.1 °F - 57.0 °F 90% 29.92 in 10.0 mi NNW 6.9 mph - 0.00 in   Overcast
8:50 PM 60.8 °F - 55.4 °F 82% 29.92 in 10.0 mi NNW 6.9 mph - 0.00 in   Overcast
8:53 PM 59.0 °F - 55.9 °F 90% 29.92 in 10.0 mi NNW 5.8 mph - 0.00 in   Overcast
9:49 PM 57.2 °F - 55.4 °F 94% 29.92 in 1.8 mi SE 5.8 mph - 0.03 in Rain Light Rain
9:53 PM 57.0 °F - 55.9 °F 96% 29.91 in 1.8 mi SE 5.8 mph - 0.03 in Rain Light Rain
10:00 PM 57.9 °F - 55.9 °F 93% 29.91 in 3.0 mi SE 5.8 mph - 0.00 in Rain Light Rain
10:53 PM 57.9 °F - 55.0 °F 90% 29.88 in 8.0 mi South 4.6 mph - 0.02 in Rain Light Rain
11:22 PM 57.9 °F - 54.0 °F 87% 29.92 in 10.0 mi WNW 6.9 mph - 0.03 in Rain Light Rain
11:45 PM 57.0 °F - 53.1 °F 87% 29.92 in 10.0 mi WNW 6.9 mph - 0.03 in   Overcast
11:53 PM 57.0 °F - 53.1 °F 87% 29.92 in 10.0 mi WNW 8.1 mph - 0.03 in   Overcast